owner,sensor,date,latitude,longitude,air_temperature,qcFlag 
COMPS,ioos:station:USF.COMPS:SHP:1,2019-10-01T00:54:00,30.0600,-84.2910,29.71,11111222 
COMPS,ioos:station:USF.COMPS:SHP:1,2019-10-01T01:54:00,30.0600,-84.2910,29.0,11111222 
COMPS,ioos:station:USF.COMPS:SHP:1,2019-10-01T02:54:00,30.0600,-84.2910,30.03,11111222 
COMPS,ioos:station:USF.COMPS:SHP:1,2019-10-01T03:54:00,30.0600,-84.2910,29.55,11111222 
COMPS,ioos:station:USF.COMPS:SHP:1,2019-10-01T04:54:00,30.0600,-84.2910,28.96,11111222 
COMPS,ioos:station:USF.COMPS:SHP:1,2019-10-01T05:54:00,30.0600,-84.2910,28.69,11111222 
COMPS,ioos:station:USF.COMPS:SHP:1,2019-10-01T06:54:00,30.0600,-84.2910,27.07,11111222 
COMPS,ioos:station:USF.COMPS:SHP:1,2019-10-01T07:54:00,30.0600,-84.2910,26.55,11111222 
COMPS,ioos:station:USF.COMPS:SHP:1,2019-10-01T08:54:00,30.0600,-84.2910,25.57,11111222 
COMPS,ioos:station:USF.COMPS:SHP:1,2019-10-01T09:54:00,30.0600,-84.2910,24.88,11111222 
COMPS,ioos:station:USF.COMPS:SHP:1,2019-10-01T10:54:00,30.0600,-84.2910,24.63,11111222 
COMPS,ioos:station:USF.COMPS:SHP:1,2019-10-01T11:54:00,30.0600,-84.2910,24.37,11111222 
COMPS,ioos:station:USF.COMPS:SHP:1,2019-10-01T12:54:00,30.0600,-84.2910,25.04,11111222 
COMPS,ioos:station:USF.COMPS:SHP:1,2019-10-01T13:54:00,30.0600,-84.2910,26.88,11111222 
COMPS,ioos:station:USF.COMPS:SHP:1,2019-10-01T14:54:00,30.0600,-84.2910,29.1,11111222 
COMPS,ioos:station:USF.COMPS:SHP:1,2019-10-01T15:54:00,30.0600,-84.2910,29.84,11111222 
COMPS,ioos:station:USF.COMPS:SHP:1,2019-10-01T16:54:00,30.0600,-84.2910,30.26,11111222 
COMPS,ioos:station:USF.COMPS:SHP:1,2019-10-01T17:54:00,30.0600,-84.2910,31.35,11111222 
COMPS,ioos:station:USF.COMPS:SHP:1,2019-10-01T18:54:00,30.0600,-84.2910,31.93,11111222 
COMPS,ioos:station:USF.COMPS:SHP:1,2019-10-01T19:54:00,30.0600,-84.2910,32.6,11111222 
COMPS,ioos:station:USF.COMPS:SHP:1,2019-10-01T20:54:00,30.0600,-84.2910,33.72,11111222 
COMPS,ioos:station:USF.COMPS:SHP:1,2019-10-01T21:54:00,30.0600,-84.2910,32.0,11111222 
COMPS,ioos:station:USF.COMPS:SHP:1,2019-10-01T22:54:00,30.0600,-84.2910,30.04,11111222 
COMPS,ioos:station:USF.COMPS:SHP:1,2019-10-01T23:54:00,30.0600,-84.2910,28.81,11111222 
COMPS,ioos:station:USF.COMPS:SHP:1,2019-10-02T00:54:00,30.0600,-84.2910,28.54,11111222 
COMPS,ioos:station:USF.COMPS:SHP:1,2019-10-02T01:54:00,30.0600,-84.2910,28.19,11111222 
COMPS,ioos:station:USF.COMPS:SHP:1,2019-10-02T02:54:00,30.0600,-84.2910,27.6,11111222 
COMPS,ioos:station:USF.COMPS:SHP:1,2019-10-02T03:54:00,30.0600,-84.2910,27.26,11111222 
COMPS,ioos:station:USF.COMPS:SHP:1,2019-10-02T04:54:00,30.0600,-84.2910,26.77,11111222 
COMPS,ioos:station:USF.COMPS:SHP:1,2019-10-02T05:54:00,30.0600,-84.2910,25.66,11111222 
COMPS,ioos:station:USF.COMPS:SHP:1,2019-10-02T06:54:00,30.0600,-84.2910,25.4,11111222 
COMPS,ioos:station:USF.COMPS:SHP:1,2019-10-02T07:54:00,30.0600,-84.2910,24.87,11111222 
COMPS,ioos:station:USF.COMPS:SHP:1,2019-10-02T08:54:00,30.0600,-84.2910,24.3,11111222 
COMPS,ioos:station:USF.COMPS:SHP:1,2019-10-02T09:54:00,30.0600,-84.2910,23.93,11111222 
COMPS,ioos:station:USF.COMPS:SHP:1,2019-10-02T10:54:00,30.0600,-84.2910,23.8,11111222 
COMPS,ioos:station:USF.COMPS:SHP:1,2019-10-02T11:54:00,30.0600,-84.2910,23.33,11111222 
COMPS,ioos:station:USF.COMPS:SHP:1,2019-10-02T12:54:00,30.0600,-84.2910,24.39,11111222 
COMPS,ioos:station:USF.COMPS:SHP:1,2019-10-02T13:54:00,30.0600,-84.2910,26.14,11111222 
COMPS,ioos:station:USF.COMPS:SHP:1,2019-10-02T14:54:00,30.0600,-84.2910,28.14,11111222 
COMPS,ioos:station:USF.COMPS:SHP:1,2019-10-02T15:54:00,30.0600,-84.2910,28.57,11111222 
COMPS,ioos:station:USF.COMPS:SHP:1,2019-10-02T16:54:00,30.0600,-84.2910,29.44,11111222 
COMPS,ioos:station:USF.COMPS:SHP:1,2019-10-02T17:54:00,30.0600,-84.2910,30.01,11111222 
COMPS,ioos:station:USF.COMPS:SHP:1,2019-10-02T18:54:00,30.0600,-84.2910,30.3,11111222 
COMPS,ioos:station:USF.COMPS:SHP:1,2019-10-02T19:54:00,30.0600,-84.2910,29.92,11111222 
COMPS,ioos:station:USF.COMPS:SHP:1,2019-10-02T20:54:00,30.0600,-84.2910,29.91,11111222 
COMPS,ioos:station:USF.COMPS:SHP:1,2019-10-02T21:54:00,30.0600,-84.2910,30.61,11111222 
COMPS,ioos:station:USF.COMPS:SHP:1,2019-10-02T22:54:00,30.0600,-84.2910,30.29,11111222 
COMPS,ioos:station:USF.COMPS:SHP:1,2019-10-02T23:54:00,30.0600,-84.2910,29.57,11111222 
COMPS,ioos:station:USF.COMPS:SHP:1,2019-10-03T00:54:00,30.0600,-84.2910,28.29,11111222 
COMPS,ioos:station:USF.COMPS:SHP:1,2019-10-03T01:54:00,30.0600,-84.2910,27.92,11111222 
COMPS,ioos:station:USF.COMPS:SHP:1,2019-10-03T02:54:00,30.0600,-84.2910,27.92,11111222 
COMPS,ioos:station:USF.COMPS:SHP:1,2019-10-03T03:54:00,30.0600,-84.2910,29.11,11111222 
COMPS,ioos:station:USF.COMPS:SHP:1,2019-10-03T04:54:00,30.0600,-84.2910,28.64,11111222 
COMPS,ioos:station:USF.COMPS:SHP:1,2019-10-03T05:54:00,30.0600,-84.2910,28.09,11111222 
COMPS,ioos:station:USF.COMPS:SHP:1,2019-10-03T06:54:00,30.0600,-84.2910,27.88,11111222 
COMPS,ioos:station:USF.COMPS:SHP:1,2019-10-03T07:54:00,30.0600,-84.2910,27.55,11111222 
COMPS,ioos:station:USF.COMPS:SHP:1,2019-10-03T08:54:00,30.0600,-84.2910,27.5,11111222 
COMPS,ioos:station:USF.COMPS:SHP:1,2019-10-03T09:54:00,30.0600,-84.2910,24.83,11111222 
COMPS,ioos:station:USF.COMPS:SHP:1,2019-10-03T10:54:00,30.0600,-84.2910,23.41,11111222 
COMPS,ioos:station:USF.COMPS:SHP:1,2019-10-03T11:54:00,30.0600,-84.2910,23.47,11111222 
COMPS,ioos:station:USF.COMPS:SHP:1,2019-10-03T12:54:00,30.0600,-84.2910,25.42,11111222 
COMPS,ioos:station:USF.COMPS:SHP:1,2019-10-03T13:54:00,30.0600,-84.2910,26.55,11111222 
COMPS,ioos:station:USF.COMPS:SHP:1,2019-10-03T14:54:00,30.0600,-84.2910,27.87,11111222 
COMPS,ioos:station:USF.COMPS:SHP:1,2019-10-03T15:54:00,30.0600,-84.2910,28.36,11111222 
COMPS,ioos:station:USF.COMPS:SHP:1,2019-10-03T16:54:00,30.0600,-84.2910,28.73,11111222 
COMPS,ioos:station:USF.COMPS:SHP:1,2019-10-03T17:54:00,30.0600,-84.2910,29.0,11111222 
COMPS,ioos:station:USF.COMPS:SHP:1,2019-10-03T18:54:00,30.0600,-84.2910,29.46,11111222 
COMPS,ioos:station:USF.COMPS:SHP:1,2019-10-03T19:54:00,30.0600,-84.2910,29.81,11111222 
COMPS,ioos:station:USF.COMPS:SHP:1,2019-10-03T20:54:00,30.0600,-84.2910,29.97,11111222 
COMPS,ioos:station:USF.COMPS:SHP:1,2019-10-03T21:54:00,30.0600,-84.2910,29.86,11111222 
COMPS,ioos:station:USF.COMPS:SHP:1,2019-10-03T22:54:00,30.0600,-84.2910,29.07,11111222 
COMPS,ioos:station:USF.COMPS:SHP:1,2019-10-03T23:54:00,30.0600,-84.2910,28.76,11111222 
COMPS,ioos:station:USF.COMPS:SHP:1,2019-10-04T00:54:00,30.0600,-84.2910,28.5,11111222 
COMPS,ioos:station:USF.COMPS:SHP:1,2019-10-04T01:54:00,30.0600,-84.2910,28.21,11111222 
COMPS,ioos:station:USF.COMPS:SHP:1,2019-10-04T02:54:00,30.0600,-84.2910,26.53,11111222 
COMPS,ioos:station:USF.COMPS:SHP:1,2019-10-04T03:54:00,30.0600,-84.2910,24.96,11111222 
COMPS,ioos:station:USF.COMPS:SHP:1,2019-10-04T04:54:00,30.0600,-84.2910,24.48,11111222 
COMPS,ioos:station:USF.COMPS:SHP:1,2019-10-04T05:54:00,30.0600,-84.2910,24.15,11111222 
COMPS,ioos:station:USF.COMPS:SHP:1,2019-10-04T06:54:00,30.0600,-84.2910,23.99,11111222 
COMPS,ioos:station:USF.COMPS:SHP:1,2019-10-04T07:54:00,30.0600,-84.2910,24.32,11111222 
COMPS,ioos:station:USF.COMPS:SHP:1,2019-10-04T08:54:00,30.0600,-84.2910,23.3,11111222 
COMPS,ioos:station:USF.COMPS:SHP:1,2019-10-04T09:54:00,30.0600,-84.2910,22.66,11111222 
COMPS,ioos:station:USF.COMPS:SHP:1,2019-10-04T10:54:00,30.0600,-84.2910,22.31,11111222 
COMPS,ioos:station:USF.COMPS:SHP:1,2019-10-04T11:54:00,30.0600,-84.2910,22.22,11111222 
COMPS,ioos:station:USF.COMPS:SHP:1,2019-10-04T12:54:00,30.0600,-84.2910,24.37,11111222 
COMPS,ioos:station:USF.COMPS:SHP:1,2019-10-04T13:54:00,30.0600,-84.2910,26.24,11111222 
COMPS,ioos:station:USF.COMPS:SHP:1,2019-10-04T14:54:00,30.0600,-84.2910,27.29,11111222 
COMPS,ioos:station:USF.COMPS:SHP:1,2019-10-04T15:54:00,30.0600,-84.2910,28.18,11111222 
COMPS,ioos:station:USF.COMPS:SHP:1,2019-10-04T16:54:00,30.0600,-84.2910,28.72,11111222 
COMPS,ioos:station:USF.COMPS:SHP:1,2019-10-04T17:54:00,30.0600,-84.2910,29.1,11111222 
COMPS,ioos:station:USF.COMPS:SHP:1,2019-10-04T18:54:00,30.0600,-84.2910,29.03,11111222 
COMPS,ioos:station:USF.COMPS:SHP:1,2019-10-04T19:54:00,30.0600,-84.2910,29.31,11111222 
COMPS,ioos:station:USF.COMPS:SHP:1,2019-10-04T20:54:00,30.0600,-84.2910,29.28,11111222 
COMPS,ioos:station:USF.COMPS:SHP:1,2019-10-04T21:54:00,30.0600,-84.2910,29.12,11111222 
COMPS,ioos:station:USF.COMPS:SHP:1,2019-10-04T22:54:00,30.0600,-84.2910,28.75,11111222 
COMPS,ioos:station:USF.COMPS:SHP:1,2019-10-04T23:54:00,30.0600,-84.2910,28.29,11111222 
COMPS,ioos:station:USF.COMPS:SHP:1,2019-10-05T00:54:00,30.0600,-84.2910,28.2,11111222 
COMPS,ioos:station:USF.COMPS:SHP:1,2019-10-05T01:54:00,30.0600,-84.2910,28.34,11111222 
COMPS,ioos:station:USF.COMPS:SHP:1,2019-10-05T02:54:00,30.0600,-84.2910,26.56,11111222 
COMPS,ioos:station:USF.COMPS:SHP:1,2019-10-05T03:54:00,30.0600,-84.2910,25.36,11111222 
COMPS,ioos:station:USF.COMPS:SHP:1,2019-10-05T04:54:00,30.0600,-84.2910,25.17,11111222 
COMPS,ioos:station:USF.COMPS:SHP:1,2019-10-05T05:54:00,30.0600,-84.2910,24.88,11111222 
COMPS,ioos:station:USF.COMPS:SHP:1,2019-10-05T06:54:00,30.0600,-84.2910,24.64,11111222 
COMPS,ioos:station:USF.COMPS:SHP:1,2019-10-05T07:54:00,30.0600,-84.2910,24.36,11111222 
COMPS,ioos:station:USF.COMPS:SHP:1,2019-10-05T08:54:00,30.0600,-84.2910,24.81,11111222 
COMPS,ioos:station:USF.COMPS:SHP:1,2019-10-05T09:54:00,30.0600,-84.2910,24.8,11111222 
COMPS,ioos:station:USF.COMPS:SHP:1,2019-10-05T10:54:00,30.0600,-84.2910,24.85,11111222 
COMPS,ioos:station:USF.COMPS:SHP:1,2019-10-05T11:54:00,30.0600,-84.2910,25.11,11111222 
COMPS,ioos:station:USF.COMPS:SHP:1,2019-10-05T12:54:00,30.0600,-84.2910,26.59,11111222 
COMPS,ioos:station:USF.COMPS:SHP:1,2019-10-05T13:54:00,30.0600,-84.2910,27.66,11111222 
COMPS,ioos:station:USF.COMPS:SHP:1,2019-10-05T14:54:00,30.0600,-84.2910,27.9,11111222 
COMPS,ioos:station:USF.COMPS:SHP:1,2019-10-05T15:54:00,30.0600,-84.2910,28.19,11111222 
COMPS,ioos:station:USF.COMPS:SHP:1,2019-10-05T16:54:00,30.0600,-84.2910,28.57,11111222 
COMPS,ioos:station:USF.COMPS:SHP:1,2019-10-05T17:54:00,30.0600,-84.2910,28.77,11111222 
COMPS,ioos:station:USF.COMPS:SHP:1,2019-10-05T18:54:00,30.0600,-84.2910,29.62,11111222 
COMPS,ioos:station:USF.COMPS:SHP:1,2019-10-05T19:54:00,30.0600,-84.2910,29.38,11111222 
COMPS,ioos:station:USF.COMPS:SHP:1,2019-10-05T20:54:00,30.0600,-84.2910,29.92,11111222 
COMPS,ioos:station:USF.COMPS:SHP:1,2019-10-05T21:54:00,30.0600,-84.2910,30.05,11111222 
COMPS,ioos:station:USF.COMPS:SHP:1,2019-10-05T22:54:00,30.0600,-84.2910,29.43,11111222 
COMPS,ioos:station:USF.COMPS:SHP:1,2019-10-05T23:54:00,30.0600,-84.2910,28.92,11111222 
COMPS,ioos:station:USF.COMPS:SHP:1,2019-10-06T00:54:00,30.0600,-84.2910,28.04,11111222 
COMPS,ioos:station:USF.COMPS:SHP:1,2019-10-06T01:54:00,30.0600,-84.2910,29.29,11111222 
COMPS,ioos:station:USF.COMPS:SHP:1,2019-10-06T02:54:00,30.0600,-84.2910,28.24,11111222 
COMPS,ioos:station:USF.COMPS:SHP:1,2019-10-06T03:54:00,30.0600,-84.2910,27.64,11111222 
COMPS,ioos:station:USF.COMPS:SHP:1,2019-10-06T04:54:00,30.0600,-84.2910,26.89,11111222 
COMPS,ioos:station:USF.COMPS:SHP:1,2019-10-06T05:54:00,30.0600,-84.2910,25.81,11111222 
COMPS,ioos:station:USF.COMPS:SHP:1,2019-10-06T06:54:00,30.0600,-84.2910,25.01,11111222 
COMPS,ioos:station:USF.COMPS:SHP:1,2019-10-06T07:54:00,30.0600,-84.2910,24.52,11111222 
COMPS,ioos:station:USF.COMPS:SHP:1,2019-10-06T08:54:00,30.0600,-84.2910,24.11,11111222 
COMPS,ioos:station:USF.COMPS:SHP:1,2019-10-06T09:54:00,30.0600,-84.2910,24.0,11111222 
COMPS,ioos:station:USF.COMPS:SHP:1,2019-10-06T10:54:00,30.0600,-84.2910,23.84,11111222 
COMPS,ioos:station:USF.COMPS:SHP:1,2019-10-06T11:54:00,30.0600,-84.2910,23.58,11111222 
COMPS,ioos:station:USF.COMPS:SHP:1,2019-10-06T12:54:00,30.0600,-84.2910,24.11,11111222 
COMPS,ioos:station:USF.COMPS:SHP:1,2019-10-06T13:54:00,30.0600,-84.2910,26.14,11111222 
COMPS,ioos:station:USF.COMPS:SHP:1,2019-10-06T14:54:00,30.0600,-84.2910,27.29,11111222 
COMPS,ioos:station:USF.COMPS:SHP:1,2019-10-06T15:54:00,30.0600,-84.2910,28.65,11111222 
COMPS,ioos:station:USF.COMPS:SHP:1,2019-10-06T16:54:00,30.0600,-84.2910,29.83,11111222 
COMPS,ioos:station:USF.COMPS:SHP:1,2019-10-06T17:54:00,30.0600,-84.2910,30.43,11111222 
COMPS,ioos:station:USF.COMPS:SHP:1,2019-10-06T18:54:00,30.0600,-84.2910,30.56,11111222 
COMPS,ioos:station:USF.COMPS:SHP:1,2019-10-06T19:54:00,30.0600,-84.2910,31.18,11111222 
COMPS,ioos:station:USF.COMPS:SHP:1,2019-10-06T20:54:00,30.0600,-84.2910,31.22,11111222 
COMPS,ioos:station:USF.COMPS:SHP:1,2019-10-06T21:54:00,30.0600,-84.2910,31.08,11111222 
COMPS,ioos:station:USF.COMPS:SHP:1,2019-10-06T22:54:00,30.0600,-84.2910,30.74,11111222 
COMPS,ioos:station:USF.COMPS:SHP:1,2019-10-06T23:54:00,30.0600,-84.2910,29.59,11111222 
COMPS,ioos:station:USF.COMPS:SHP:1,2019-10-07T00:54:00,30.0600,-84.2910,27.32,11111222 
COMPS,ioos:station:USF.COMPS:SHP:1,2019-10-07T01:54:00,30.0600,-84.2910,25.79,11111222 
COMPS,ioos:station:USF.COMPS:SHP:1,2019-10-07T02:54:00,30.0600,-84.2910,25.4,11111222 
COMPS,ioos:station:USF.COMPS:SHP:1,2019-10-07T03:54:00,30.0600,-84.2910,24.96,11111222 
COMPS,ioos:station:USF.COMPS:SHP:1,2019-10-07T04:54:00,30.0600,-84.2910,24.76,11111222 
COMPS,ioos:station:USF.COMPS:SHP:1,2019-10-07T05:54:00,30.0600,-84.2910,24.29,11111222 
COMPS,ioos:station:USF.COMPS:SHP:1,2019-10-07T06:54:00,30.0600,-84.2910,24.08,11111222 
COMPS,ioos:station:USF.COMPS:SHP:1,2019-10-07T07:54:00,30.0600,-84.2910,23.62,11111222 
COMPS,ioos:station:USF.COMPS:SHP:1,2019-10-07T08:54:00,30.0600,-84.2910,23.34,11111222 
COMPS,ioos:station:USF.COMPS:SHP:1,2019-10-07T09:54:00,30.0600,-84.2910,22.9,11111222 
COMPS,ioos:station:USF.COMPS:SHP:1,2019-10-07T10:54:00,30.0600,-84.2910,23.02,11111222 
COMPS,ioos:station:USF.COMPS:SHP:1,2019-10-07T11:54:00,30.0600,-84.2910,22.96,11111222 
COMPS,ioos:station:USF.COMPS:SHP:1,2019-10-07T13:54:00,30.0600,-84.2910,24.74,11111222 
COMPS,ioos:station:USF.COMPS:SHP:1,2019-10-07T14:54:00,30.0600,-84.2910,24.99,11111222 
COMPS,ioos:station:USF.COMPS:SHP:1,2019-10-07T15:54:00,30.0600,-84.2910,25.77,11111222 
COMPS,ioos:station:USF.COMPS:SHP:1,2019-10-07T16:54:00,30.0600,-84.2910,26.53,11111222 
COMPS,ioos:station:USF.COMPS:SHP:1,2019-10-07T17:54:00,30.0600,-84.2910,26.96,11111222 
COMPS,ioos:station:USF.COMPS:SHP:1,2019-10-07T18:54:00,30.0600,-84.2910,28.04,11111222 
COMPS,ioos:station:USF.COMPS:SHP:1,2019-10-07T19:54:00,30.0600,-84.2910,27.86,11111222 
COMPS,ioos:station:USF.COMPS:SHP:1,2019-10-07T20:54:00,30.0600,-84.2910,26.54,11111222 
COMPS,ioos:station:USF.COMPS:SHP:1,2019-10-07T21:54:00,30.0600,-84.2910,27.15,11111222 
COMPS,ioos:station:USF.COMPS:SHP:1,2019-10-07T22:54:00,30.0600,-84.2910,25.81,11111222 
COMPS,ioos:station:USF.COMPS:SHP:1,2019-10-07T23:54:00,30.0600,-84.2910,25.25,11111222 
COMPS,ioos:station:USF.COMPS:SHP:1,2019-10-08T00:54:00,30.0600,-84.2910,25.24,11111222 
COMPS,ioos:station:USF.COMPS:SHP:1,2019-10-08T01:54:00,30.0600,-84.2910,24.86,11111222 
COMPS,ioos:station:USF.COMPS:SHP:1,2019-10-08T02:54:00,30.0600,-84.2910,24.59,11111222 
COMPS,ioos:station:USF.COMPS:SHP:1,2019-10-08T03:54:00,30.0600,-84.2910,24.11,11111222 
COMPS,ioos:station:USF.COMPS:SHP:1,2019-10-08T04:54:00,30.0600,-84.2910,23.8,11111222 
COMPS,ioos:station:USF.COMPS:SHP:1,2019-10-08T05:54:00,30.0600,-84.2910,23.16,11111222 
COMPS,ioos:station:USF.COMPS:SHP:1,2019-10-08T06:54:00,30.0600,-84.2910,22.89,11111222 
COMPS,ioos:station:USF.COMPS:SHP:1,2019-10-08T07:54:00,30.0600,-84.2910,22.02,11111222 
COMPS,ioos:station:USF.COMPS:SHP:1,2019-10-08T08:54:00,30.0600,-84.2910,21.81,11111222 
COMPS,ioos:station:USF.COMPS:SHP:1,2019-10-08T09:54:00,30.0600,-84.2910,22.08,11111222 
COMPS,ioos:station:USF.COMPS:SHP:1,2019-10-08T10:54:00,30.0600,-84.2910,21.94,11111222 
COMPS,ioos:station:USF.COMPS:SHP:1,2019-10-08T11:54:00,30.0600,-84.2910,21.93,11111222 
COMPS,ioos:station:USF.COMPS:SHP:1,2019-10-08T12:54:00,30.0600,-84.2910,23.25,11111222 
COMPS,ioos:station:USF.COMPS:SHP:1,2019-10-08T13:54:00,30.0600,-84.2910,24.72,11111222 
COMPS,ioos:station:USF.COMPS:SHP:1,2019-10-08T14:54:00,30.0600,-84.2910,26.38,11111222 
COMPS,ioos:station:USF.COMPS:SHP:1,2019-10-08T15:54:00,30.0600,-84.2910,27.73,11111222 
COMPS,ioos:station:USF.COMPS:SHP:1,2019-10-08T16:54:00,30.0600,-84.2910,29.98,11111222 
COMPS,ioos:station:USF.COMPS:SHP:1,2019-10-08T18:54:00,30.0600,-84.2910,31.55,11111222 
COMPS,ioos:station:USF.COMPS:SHP:1,2019-10-08T19:54:00,30.0600,-84.2910,31.48,11111222 
COMPS,ioos:station:USF.COMPS:SHP:1,2019-10-08T20:54:00,30.0600,-84.2910,30.09,11111222 
COMPS,ioos:station:USF.COMPS:SHP:1,2019-10-08T21:54:00,30.0600,-84.2910,29.95,11111222 
COMPS,ioos:station:USF.COMPS:SHP:1,2019-10-08T22:54:00,30.0600,-84.2910,30.58,11111222 
COMPS,ioos:station:USF.COMPS:SHP:1,2019-10-08T23:54:00,30.0600,-84.2910,28.47,11111222 
COMPS,ioos:station:USF.COMPS:SHP:1,2019-10-09T00:54:00,30.0600,-84.2910,27.72,11111222 
COMPS,ioos:station:USF.COMPS:SHP:1,2019-10-09T01:54:00,30.0600,-84.2910,26.64,11111222 
COMPS,ioos:station:USF.COMPS:SHP:1,2019-10-09T02:54:00,30.0600,-84.2910,26.16,11111222 
COMPS,ioos:station:USF.COMPS:SHP:1,2019-10-09T03:54:00,30.0600,-84.2910,27.05,11111222 
COMPS,ioos:station:USF.COMPS:SHP:1,2019-10-09T04:54:00,30.0600,-84.2910,26.81,11111222 
COMPS,ioos:station:USF.COMPS:SHP:1,2019-10-09T05:54:00,30.0600,-84.2910,26.37,11111222 
COMPS,ioos:station:USF.COMPS:SHP:1,2019-10-09T06:54:00,30.0600,-84.2910,25.99,11111222 
COMPS,ioos:station:USF.COMPS:SHP:1,2019-10-09T07:54:00,30.0600,-84.2910,25.04,11111222 
COMPS,ioos:station:USF.COMPS:SHP:1,2019-10-09T08:54:00,30.0600,-84.2910,23.79,11111222 
COMPS,ioos:station:USF.COMPS:SHP:1,2019-10-09T09:54:00,30.0600,-84.2910,23.02,11111222 
COMPS,ioos:station:USF.COMPS:SHP:1,2019-10-09T10:54:00,30.0600,-84.2910,22.84,11111222 
COMPS,ioos:station:USF.COMPS:SHP:1,2019-10-09T11:54:00,30.0600,-84.2910,22.57,11111222 
COMPS,ioos:station:USF.COMPS:SHP:1,2019-10-09T12:54:00,30.0600,-84.2910,23.55,11111222 
COMPS,ioos:station:USF.COMPS:SHP:1,2019-10-09T13:54:00,30.0600,-84.2910,24.79,11111222 
COMPS,ioos:station:USF.COMPS:SHP:1,2019-10-09T14:54:00,30.0600,-84.2910,26.35,11111222 
COMPS,ioos:station:USF.COMPS:SHP:1,2019-10-09T15:54:00,30.0600,-84.2910,27.62,11111222 
COMPS,ioos:station:USF.COMPS:SHP:1,2019-10-09T16:54:00,30.0600,-84.2910,27.91,11111222 
COMPS,ioos:station:USF.COMPS:SHP:1,2019-10-09T17:54:00,30.0600,-84.2910,28.89,11111222 
COMPS,ioos:station:USF.COMPS:SHP:1,2019-10-09T18:54:00,30.0600,-84.2910,30.65,11111222 
COMPS,ioos:station:USF.COMPS:SHP:1,2019-10-09T19:54:00,30.0600,-84.2910,30.2,11111222 
COMPS,ioos:station:USF.COMPS:SHP:1,2019-10-09T20:54:00,30.0600,-84.2910,30.75,11111222 
COMPS,ioos:station:USF.COMPS:SHP:1,2019-10-09T21:54:00,30.0600,-84.2910,30.57,11111222 
COMPS,ioos:station:USF.COMPS:SHP:1,2019-10-10T00:54:00,30.0600,-84.2910,25.53,11111222 
COMPS,ioos:station:USF.COMPS:SHP:1,2019-10-10T01:54:00,30.0600,-84.2910,24.43,11111222 
COMPS,ioos:station:USF.COMPS:SHP:1,2019-10-10T02:54:00,30.0600,-84.2910,23.45,11111222 
COMPS,ioos:station:USF.COMPS:SHP:1,2019-10-10T03:54:00,30.0600,-84.2910,22.68,11111222 
COMPS,ioos:station:USF.COMPS:SHP:1,2019-10-10T04:54:00,30.0600,-84.2910,22.3,11111222 
COMPS,ioos:station:USF.COMPS:SHP:1,2019-10-10T05:54:00,30.0600,-84.2910,22.08,11111222 
COMPS,ioos:station:USF.COMPS:SHP:1,2019-10-10T06:54:00,30.0600,-84.2910,21.39,11111222 
COMPS,ioos:station:USF.COMPS:SHP:1,2019-10-10T07:54:00,30.0600,-84.2910,20.88,11111222 
COMPS,ioos:station:USF.COMPS:SHP:1,2019-10-10T08:54:00,30.0600,-84.2910,20.46,11111222 
COMPS,ioos:station:USF.COMPS:SHP:1,2019-10-10T09:54:00,30.0600,-84.2910,19.55,11111222 
COMPS,ioos:station:USF.COMPS:SHP:1,2019-10-10T10:54:00,30.0600,-84.2910,19.66,11111222 
COMPS,ioos:station:USF.COMPS:SHP:1,2019-10-10T11:54:00,30.0600,-84.2910,19.5,11111222 
COMPS,ioos:station:USF.COMPS:SHP:1,2019-10-10T12:54:00,30.0600,-84.2910,21.29,11111222 
COMPS,ioos:station:USF.COMPS:SHP:1,2019-10-10T13:54:00,30.0600,-84.2910,23.12,11111222 
COMPS,ioos:station:USF.COMPS:SHP:1,2019-10-10T14:54:00,30.0600,-84.2910,25.29,11111222 
COMPS,ioos:station:USF.COMPS:SHP:1,2019-10-10T15:54:00,30.0600,-84.2910,26.58,11111222 
COMPS,ioos:station:USF.COMPS:SHP:1,2019-10-10T16:54:00,30.0600,-84.2910,28.36,11111222 
COMPS,ioos:station:USF.COMPS:SHP:1,2019-10-10T17:54:00,30.0600,-84.2910,28.12,11111222 
COMPS,ioos:station:USF.COMPS:SHP:1,2019-10-10T18:54:00,30.0600,-84.2910,28.75,11111222 
COMPS,ioos:station:USF.COMPS:SHP:1,2019-10-10T19:54:00,30.0600,-84.2910,31.17,11111222 
COMPS,ioos:station:USF.COMPS:SHP:1,2019-10-10T20:54:00,30.0600,-84.2910,30.11,11111222 
COMPS,ioos:station:USF.COMPS:SHP:1,2019-10-10T21:54:00,30.0600,-84.2910,29.83,11111222 
COMPS,ioos:station:USF.COMPS:SHP:1,2019-10-10T22:54:00,30.0600,-84.2910,28.87,11111222 
COMPS,ioos:station:USF.COMPS:SHP:1,2019-10-10T23:54:00,30.0600,-84.2910,27.18,11111222 
COMPS,ioos:station:USF.COMPS:SHP:1,2019-10-11T00:54:00,30.0600,-84.2910,25.96,11111222 
COMPS,ioos:station:USF.COMPS:SHP:1,2019-10-11T01:54:00,30.0600,-84.2910,25.45,11111222 
COMPS,ioos:station:USF.COMPS:SHP:1,2019-10-11T02:54:00,30.0600,-84.2910,25.11,11111222 
COMPS,ioos:station:USF.COMPS:SHP:1,2019-10-11T03:54:00,30.0600,-84.2910,24.36,11111222 
COMPS,ioos:station:USF.COMPS:SHP:1,2019-10-11T04:54:00,30.0600,-84.2910,23.63,11111222 
COMPS,ioos:station:USF.COMPS:SHP:1,2019-10-11T05:54:00,30.0600,-84.2910,22.68,11111222 
COMPS,ioos:station:USF.COMPS:SHP:1,2019-10-11T06:54:00,30.0600,-84.2910,22.09,11111222 
COMPS,ioos:station:USF.COMPS:SHP:1,2019-10-11T07:54:00,30.0600,-84.2910,21.2,11111222 
COMPS,ioos:station:USF.COMPS:SHP:1,2019-10-11T08:54:00,30.0600,-84.2910,20.07,11111222 
COMPS,ioos:station:USF.COMPS:SHP:1,2019-10-11T09:54:00,30.0600,-84.2910,20.35,11111222 
COMPS,ioos:station:USF.COMPS:SHP:1,2019-10-11T10:54:00,30.0600,-84.2910,20.48,11111222 
COMPS,ioos:station:USF.COMPS:SHP:1,2019-10-11T11:54:00,30.0600,-84.2910,19.65,11111222 
COMPS,ioos:station:USF.COMPS:SHP:1,2019-10-11T12:54:00,30.0600,-84.2910,20.62,11111222 
COMPS,ioos:station:USF.COMPS:SHP:1,2019-10-11T14:54:00,30.0600,-84.2910,24.77,11111222 
COMPS,ioos:station:USF.COMPS:SHP:1,2019-10-11T16:54:00,30.0600,-84.2910,26.26,11111222 
COMPS,ioos:station:USF.COMPS:SHP:1,2019-10-11T17:54:00,30.0600,-84.2910,26.77,11111222 
COMPS,ioos:station:USF.COMPS:SHP:1,2019-10-11T18:54:00,30.0600,-84.2910,27.03,11111222 
COMPS,ioos:station:USF.COMPS:SHP:1,2019-10-11T19:54:00,30.0600,-84.2910,27.23,11111222 
COMPS,ioos:station:USF.COMPS:SHP:1,2019-10-11T20:54:00,30.0600,-84.2910,27.45,11111222 
COMPS,ioos:station:USF.COMPS:SHP:1,2019-10-11T21:54:00,30.0600,-84.2910,27.23,11111222 
COMPS,ioos:station:USF.COMPS:SHP:1,2019-10-11T22:54:00,30.0600,-84.2910,26.83,11111222 
COMPS,ioos:station:USF.COMPS:SHP:1,2019-10-11T23:54:00,30.0600,-84.2910,25.99,11111222 
COMPS,ioos:station:USF.COMPS:SHP:1,2019-10-12T00:54:00,30.0600,-84.2910,25.4,11111222 
COMPS,ioos:station:USF.COMPS:SHP:1,2019-10-12T01:54:00,30.0600,-84.2910,23.4,11111222 
COMPS,ioos:station:USF.COMPS:SHP:1,2019-10-12T02:54:00,30.0600,-84.2910,22.34,11111222 
COMPS,ioos:station:USF.COMPS:SHP:1,2019-10-12T03:54:00,30.0600,-84.2910,22.29,11111222 
COMPS,ioos:station:USF.COMPS:SHP:1,2019-10-12T04:54:00,30.0600,-84.2910,24.53,11111222 
COMPS,ioos:station:USF.COMPS:SHP:1,2019-10-12T05:54:00,30.0600,-84.2910,24.64,11111222 
COMPS,ioos:station:USF.COMPS:SHP:1,2019-10-12T06:54:00,30.0600,-84.2910,24.54,11111222 
COMPS,ioos:station:USF.COMPS:SHP:1,2019-10-12T07:54:00,30.0600,-84.2910,24.39,11111222 
COMPS,ioos:station:USF.COMPS:SHP:1,2019-10-12T08:54:00,30.0600,-84.2910,24.29,11111222 
COMPS,ioos:station:USF.COMPS:SHP:1,2019-10-12T09:54:00,30.0600,-84.2910,24.16,11111222 
COMPS,ioos:station:USF.COMPS:SHP:1,2019-10-12T10:54:00,30.0600,-84.2910,19.91,11111222 
COMPS,ioos:station:USF.COMPS:SHP:1,2019-10-12T11:54:00,30.0600,-84.2910,19.44,11111222 
COMPS,ioos:station:USF.COMPS:SHP:1,2019-10-12T12:54:00,30.0600,-84.2910,21.01,11111222 
COMPS,ioos:station:USF.COMPS:SHP:1,2019-10-12T13:54:00,30.0600,-84.2910,22.78,11111222 